Regional Weather Roundup
Issued by NWS

Home | Current Version | Previous Version | Graphics & Text | Print | Product List | Glossary On
Versions: 1 2 3 4 5 6 7 8 9 10 11 12 13 14 15 16 17 18 19 20 21 22 23 24 25 26 27 28 29 30 31 32 33 34 35 36 37 38 39 40 41 42 43 44 45 46 47 48 49 50
257
ASUS43 KOAX 290702
RWRNE

WEATHER ROUNDUP FOR NEBRASKA
NATIONAL WEATHER SERVICE OMAHA NE
200 AM CDT MON MAY 29 2017

NOTES: SATELLITE DATA IS BEING USED TO AUGMENT CLOUD COVER ABOVE
       12000 FEET.
       "FAIR" INDICATES FEW OR NO CLOUDS BELOW 12,000 FEET WITH NO
       SIGNIFICANT WEATHER AND/OR OBSTRUCTIONS TO VISIBILITY.

  * THESE STATIONS DO NOT REPORT WEATHER SUCH AS RAIN...SNOW OR FOG.

NEZ001>004-019>022-054>056-290800-
NEBRASKA PANHANDLE

CITY           SKY/WX    TMP DP  RH WIND       PRES   REMARKS
SCOTTSBLUFF    CLOUDY    48  44  86 NW6       30.18F
ALLIANCE       CLEAR     48  45  89 W12       30.14S
CHADRON        CLEAR     52  45  77 W14       30.13R
GORDON         FAIR      49  44  84 W9        30.10S
KIMBALL        CLEAR     48  43  83 NW9       30.22F
SIDNEY         CLEAR     45  42  89 W7        30.20S
$$

NEZ057>060-069>072-079>082-290800-
SOUTHWEST NEBRASKA

CITY           SKY/WX    TMP DP  RH WIND       PRES   REMARKS
NORTH PLATTE   CLEAR     48  45  89 W7        30.07S
IMPERIAL       CLEAR     51  45  79 W10       30.13S
LEXINGTON      CLEAR     51  47  86 W8        30.04S
MCCOOK         CLEAR     52  47  83 SW8       30.08F
OGALLALA       CLEAR     51  46  84 W7        30.13R
$$

NEZ005>010-023>029-035>040-094-290800-
NORTH CENTRAL NEBRASKA

CITY           SKY/WX    TMP DP  RH WIND       PRES   REMARKS
VALENTINE      CLEAR     53  46  77 NW12      30.03R
AINSWORTH      CLEAR     53  48  85 W10       30.02R
BROKEN BOW     PTCLDY    57  45  64 NW16      30.01S
O`NEILL        CLEAR     55  45  67 NW13      29.97S
ORD            CLEAR     50  44  80 NW7       29.97F
THEDFORD       CLEAR     52  46  80 W9        30.05S
$$

NEZ041-046>049-061>064-073>077-083>087-290800-
SOUTH CENTRAL NEBRASKA

CITY           SKY/WX    TMP DP  RH WIND       PRES   REMARKS
GRAND ISLAND   CLEAR     56  48  74 NW12      29.98S
AURORA         CLEAR     57  46  65 W10       29.97S
HASTINGS       CLEAR     58  45  62 W10       30.00R
HEBRON         CLEAR     59  50  72 W3        29.96R
HOLDREGE       CLEAR     55  46  69 W7        30.03S
KEARNEY *      CLEAR     55  45  67 NW8       30.02S
$$

NEZ011>018-030>034-042>045-290800-
NORTHEAST NEBRASKA

CITY           SKY/WX    TMP DP  RH WIND       PRES   REMARKS
NORFOLK        CLEAR     60  43  53 NW12      29.91S
ALBION         PTCLDY    59  44  58 NW10      29.95S
BLAIR          CLEAR     61  43  51 NW7       29.89R
FREMONT        CLEAR     58  44  58 W8        29.90R
TEKAMAH        CLEAR     64  41  42 NW13      29.87S
WAYNE          CLEAR     60  45  56 NW10      29.90F
$$

NEZ050>053-065>068-078-088>093-290800-
SOUTHEAST NEBRASKA

CITY           SKY/WX    TMP DP  RH WIND       PRES   REMARKS
LINCOLN        CLEAR     61  44  53 CALM      29.93R
OMAHA EPPLEY   PTCLDY    60  44  55 N5        29.88R
BEATRICE       CLEAR     56  48  72 CALM      29.93R
FALLS CITY     CLEAR     57  46  66 SW5       29.90S
NEBRASKA CITY  CLEAR     59  42  53 W9        29.89S
PLATTSMOUTH    CLEAR     62  43  50 W5        29.89R
$$

NEZ044-045-051>053-067-290800-
OMAHA AREA

CITY           SKY/WX    TMP DP  RH WIND       PRES   REMARKS
OMAHA EPPLEY   PTCLDY    60  44  55 N5        29.88R
BLAIR          CLEAR     61  43  51 NW7       29.89R
FREMONT        CLEAR     58  44  58 W8        29.90R
MILLARD        CLEAR     58  49  72 CALM      29.89R
OFFUTT AFB     CLEAR     55  46  71 W6        29.87R
PLATTSMOUTH    CLEAR     62  43  50 W5        29.89R
WAHOO          FAIR      62  41  46 NW12      29.90S
$$




USA.gov is the U.S. government's official web portal to all federal, state and local government web resources and services.